Voltar ao catálogo

SL-8 DEB

AtivoLEO
NORAD 22198·DEBRIS·🇷🇺 Russia

Lançado Feb 12, 1991 de Plesetsk Cosmodrome

Loading…

Próximas Passagens (próximas 24 horas)

TLE

EnvelhecendoSource: Space-Track

Época: Sep 11, 2026, 16:44 UTC

1 22198U 91009CS  26254.69780412  .00000031  00000-0  38106-3 0  9992
2 22198  73.9198 348.3959 0146925 303.9339 210.6332 12.30660193594870

Acompanhe SL-8 DEB em tempo real com AllMySat

Download on the App Store